Weather History for Somerset, KY

Change the Weather History Date:

Tuesday, November 26, 2013

  Actual Average Record
Temperature  
Mean Temperature 34 °F -  
Max Temperature 35 °F 54 °F 71 °F (2001)
Min Temperature 32 °F 34 °F 19 °F (2008)
Degree Days  
Heating Degree Days 32    
Moisture  
Dew Point 34 °F    
Average Humidity 100    
Maximum Humidity 100    
Minimum Humidity 93    
Precipitation  
Precipitation 0.57 in - - ()
Sea Level Pressure  
Sea Level Pressure 30.01 in    
Wind  
Wind Speed 3 mph (NNE)    
Max Wind Speed 10 mph    
Max Gust Speed 17 mph    
Visibility 5 miles    
Events Rain , Snow    
Averages and records for this station are not official NWS values.
T = Trace of Precipitation, MM = Missing Value Source: NWS Daily Summary

Daily Weather History Graph

Daily Weather History Graph

Search for Another Location

Airport:

Trip Planner

Search our weather history database for the weather conditions in past years. The results will help you decide how hot, cold, wet, or windy it might be!

Date:

Astronomy

Nov. 26, 2013 Rise Set
Actual Time 7:28 AM EST 5:22 PM EST
Civil Twilight 7:00 AM EST 5:51 PM EST
Nautical Twilight 6:28 AM EST 6:23 PM EST
Astronomical Twilight 5:57 AM EST 6:54 PM EST
Moon 12:40 AM EST (11/26) 1:20 PM EST (11/26)
Length of Visible Light 10h 50m
Length of Day
9h 54m
Last Quarter, 41% of the Moon is Illuminated
Nov 26
Last Quarter
Dec 2
New
Dec 9
First Quarter
Dec 17
Full
Dec 25
Last Quarter

Hourly Weather History & Observations

Time (EST) Temp. Windchill Dew Point Humidity Pressure Visibility Wind Dir Wind Speed Gust Speed Precip Events Conditions
12:15 AM 32.0 °F - 32.0 °F 100% 30.24 in 3.0 mi Calm Calm - N/A   Overcast
12:35 AM 32.0 °F - 32.0 °F 100% 30.22 in 2.0 mi Calm Calm - 0.01 in   Overcast
12:55 AM 32.0 °F - 32.0 °F 100% 30.21 in 2.5 mi Calm Calm - 0.02 in   Overcast
1:15 AM 32.0 °F - 32.0 °F 100% 30.21 in 3.0 mi Calm Calm - N/A   Overcast
1:35 AM 32.0 °F - 32.0 °F 100% 30.21 in 2.0 mi Calm Calm - 0.01 in   Overcast
1:55 AM 32.0 °F - 32.0 °F 100% 30.20 in 3.0 mi Calm Calm - 0.02 in   Overcast
2:15 AM 32.0 °F 28.7 °F 32.0 °F 100% 30.18 in 4.0 mi SE 3.5 mph - N/A   Drizzle
2:35 AM 32.0 °F - 32.0 °F 100% 30.18 in 4.0 mi Calm Calm - N/A   Overcast
2:55 AM 32.0 °F - 32.0 °F 100% 30.19 in 5.0 mi Calm Calm - 0.01 in Rain Light Rain
3:15 AM 32.0 °F - 32.0 °F 100% 30.18 in 4.0 mi Calm Calm - 0.02 in Rain Light Rain
3:35 AM 32.0 °F - 32.0 °F 100% 30.17 in 4.0 mi Calm Calm - 0.02 in Rain Light Rain
3:55 AM 32.0 °F - 32.0 °F 100% 30.17 in 5.0 mi Calm Calm - 0.02 in Rain Light Rain
4:15 AM 32.0 °F 28.7 °F 32.0 °F 100% 30.15 in 5.0 mi ENE 3.5 mph - 0.01 in   Light Drizzle
4:35 AM 32.0 °F - 32.0 °F 100% 30.14 in 7.0 mi Calm Calm - 0.01 in Rain Light Rain
4:55 AM 32.0 °F - 32.0 °F 100% 30.14 in 7.0 mi Calm Calm - 0.01 in Rain Rain
5:15 AM 32.0 °F - 32.0 °F 100% 30.14 in 7.0 mi Calm Calm - N/A   Drizzle
5:35 AM 32.0 °F - 32.0 °F 100% 30.13 in 5.0 mi Calm Calm - 0.01 in Rain Light Rain
5:55 AM 32.0 °F - 32.0 °F 100% 30.12 in 5.0 mi Calm Calm - 0.02 in Rain Light Rain
6:15 AM 32.0 °F - 32.0 °F 100% 30.12 in 7.0 mi Calm Calm - 0.01 in Rain Light Rain
6:35 AM 32.0 °F - 32.0 °F 100% 30.12 in 4.0 mi Calm Calm - 0.03 in Rain Light Rain
6:55 AM 32.0 °F - 32.0 °F 100% 30.10 in 4.0 mi Calm Calm - 0.05 in Rain Light Rain
7:15 AM 32.0 °F - 32.0 °F 100% 30.09 in 5.0 mi Calm Calm - 0.02 in Rain Light Rain
7:35 AM 32.0 °F - 32.0 °F 100% 30.08 in 3.0 mi Calm Calm - 0.06 in   Overcast
7:55 AM 33.8 °F 30.8 °F 33.8 °F 100% 30.07 in 3.0 mi East 3.5 mph - 0.11 in Rain Light Rain
8:15 AM 33.8 °F - 33.8 °F 100% 30.06 in 1.8 mi Calm Calm - 0.07 in   Overcast
8:35 AM 33.8 °F 28.6 °F 33.8 °F 100% 30.04 in 3.0 mi ESE 5.8 mph - 0.11 in Rain Rain
8:55 AM 33.8 °F - 33.8 °F 100% 30.02 in 2.5 mi Calm Calm - 0.14 in Rain Rain
9:15 AM 33.8 °F 28.6 °F 33.8 °F 100% 30.02 in 4.0 mi ESE 5.8 mph - 0.01 in Rain Light Rain
9:35 AM 33.8 °F - 33.8 °F 100% 30.02 in 5.0 mi Calm Calm - 0.02 in Rain Light Rain
9:55 AM 35.6 °F 29.2 °F 35.6 °F 100% 30.04 in 5.0 mi NNW 8.1 mph - 0.03 in Rain Rain
10:15 AM 35.6 °F 30.7 °F 35.6 °F 100% 30.03 in 7.0 mi North 5.8 mph - 0.01 in Rain Rain
10:35 AM 35.6 °F 29.9 °F 35.6 °F 100% 30.01 in 10.0 mi NNE 6.9 mph - 0.01 in   Drizzle
10:55 AM 35.6 °F 29.9 °F 35.6 °F 100% 30.01 in 10.0 mi NNE 6.9 mph - 0.01 in   Light Drizzle
11:15 AM 35.6 °F 29.2 °F 35.6 °F 100% 30.01 in 10.0 mi NNE 8.1 mph - N/A   Overcast
11:35 AM 35.6 °F 29.9 °F 35.6 °F 100% 30.01 in 3.0 mi North 6.9 mph - N/A Rain Rain
11:55 AM 35.6 °F 29.9 °F 35.6 °F 100% 29.96 in 1.8 mi NE 6.9 mph - N/A Rain Light Rain
12:15 PM 35.6 °F 30.7 °F 35.6 °F 100% 29.95 in 3.0 mi NNE 5.8 mph - 0.01 in   Drizzle
12:35 PM 35.6 °F 29.9 °F 35.6 °F 100% 29.95 in 3.0 mi NNE 6.9 mph - 0.01 in Rain Light Rain
12:55 PM 35.6 °F 32.8 °F 35.6 °F 100% 29.95 in 2.5 mi North 3.5 mph - 0.02 in Rain Rain
1:15 PM 35.6 °F 29.9 °F 35.6 °F 100% 29.93 in 3.0 mi NNE 6.9 mph - 0.03 in Rain Light Rain
1:35 PM 35.6 °F 30.7 °F 35.6 °F 100% 29.94 in 4.0 mi NNE 5.8 mph - 0.04 in Rain Light Rain
1:55 PM 35.6 °F 31.7 °F 35.6 °F 100% 29.93 in 5.0 mi NNE 4.6 mph - 0.05 in Rain Light Rain
2:15 PM 35.6 °F 30.7 °F 35.6 °F 100% 29.93 in 4.0 mi NNE 5.8 mph - 0.02 in Rain Light Rain
2:35 PM 35.6 °F 31.7 °F 35.6 °F 100% 29.91 in 7.0 mi NE 4.6 mph - 0.03 in Rain Light Rain
2:55 PM 35.6 °F 29.2 °F 35.6 °F 100% 29.90 in 10.0 mi NE 8.1 mph - 0.03 in Rain Light Rain
3:15 PM 35.6 °F 32.8 °F 35.6 °F 100% 29.88 in 10.0 mi ENE 3.5 mph - 0.01 in Rain Light Rain
3:35 PM 35.6 °F 31.7 °F 35.6 °F 100% 29.88 in 7.0 mi NNE 4.6 mph - 0.02 in Rain Light Rain
3:55 PM 35.6 °F 32.8 °F 35.6 °F 100% 29.87 in 7.0 mi NNE 3.5 mph - 0.02 in Rain Light Rain
4:15 PM 35.6 °F 30.7 °F 35.6 °F 100% 29.86 in 4.0 mi NNE 5.8 mph - N/A   Drizzle
4:35 PM 35.6 °F 30.7 °F 35.6 °F 100% 29.87 in 3.0 mi NNE 5.8 mph - N/A Rain Light Rain
4:55 PM 35.6 °F 30.7 °F 35.6 °F 100% 29.89 in 3.0 mi North 5.8 mph - N/A Rain Light Rain
5:15 PM 35.6 °F 28.6 °F 35.6 °F 100% 29.88 in 2.5 mi North 9.2 mph - 0.01 in Rain Light Rain
5:35 PM 35.6 °F 29.9 °F 35.6 °F 100% 29.87 in 4.0 mi North 6.9 mph - 0.01 in Rain Light Rain
5:55 PM 35.6 °F 28.6 °F 35.6 °F 100% 29.87 in 5.0 mi North 9.2 mph - 0.01 in Rain Rain
6:15 PM 35.6 °F 29.2 °F 33.8 °F 93% 29.88 in 7.0 mi North 8.1 mph - N/A Rain Light Rain
6:35 PM 35.6 °F 28.6 °F 33.8 °F 93% 29.91 in 7.0 mi NNW 9.2 mph - N/A   Drizzle
6:55 PM 33.8 °F 27.7 °F 33.8 °F 100% 29.90 in 4.0 mi North 6.9 mph - N/A Rain Rain
7:15 PM 33.8 °F 27.0 °F 33.8 °F 100% 29.92 in 5.0 mi North 8.1 mph - N/A Rain Rain
7:35 PM 33.8 °F 27.7 °F 33.8 °F 100% 29.92 in 5.0 mi North 6.9 mph - N/A   Drizzle
7:55 PM 33.8 °F 27.7 °F 33.8 °F 100% 29.92 in 7.0 mi North 6.9 mph - N/A   Drizzle
8:15 PM 33.8 °F 27.0 °F 32.0 °F 93% 29.92 in 10.0 mi North 8.1 mph - N/A Rain Light Rain
8:35 PM 33.8 °F 28.6 °F 32.0 °F 93% 29.93 in 5.0 mi NNW 5.8 mph - N/A Snow Light Snow
8:55 PM 32.0 °F 24.8 °F 32.0 °F 100% 29.93 in 5.0 mi North 8.1 mph - N/A   Overcast
9:15 PM 32.0 °F 25.6 °F 32.0 °F 100% 29.93 in 7.0 mi North 6.9 mph - N/A   Overcast
9:35 PM 32.0 °F 23.6 °F 32.0 °F 100% 29.93 in 7.0 mi North 10.4 mph - N/A Snow Light Snow
9:55 PM 32.0 °F 24.8 °F 32.0 °F 100% 29.93 in 7.0 mi North 8.1 mph - N/A   Overcast
10:15 PM 32.0 °F 24.8 °F 32.0 °F 100% 29.92 in 7.0 mi North 8.1 mph - N/A Snow Light Snow
10:35 PM 32.0 °F 24.8 °F 32.0 °F 100% 29.93 in 7.0 mi North 8.1 mph 17.3 mph N/A Snow Light Snow
10:55 PM 32.0 °F 24.8 °F 32.0 °F 100% 29.93 in 5.0 mi North 8.1 mph - N/A Snow Light Snow
11:15 PM 32.0 °F 24.2 °F 32.0 °F 100% 29.92 in 5.0 mi NNW 9.2 mph - N/A Snow Light Snow
11:35 PM 32.0 °F 24.2 °F 32.0 °F 100% 29.93 in 4.0 mi North 9.2 mph - N/A Snow Light Snow
11:55 PM 32.0 °F 26.4 °F 32.0 °F 100% 29.92 in 2.5 mi North 5.8 mph - N/A Snow Light Snow